Location: Newark
(13.0000°N, 105.0000°E)
Time: 07:44:47
(UTC+00:00)

OTV 5 (USA 277) - Pass Details

Date: 26 October 2019
Orbit: 310 x 324 km, 54.5° (Epoch: 17 October)

Event Time Altitude Azimuth Distance (km) Brightness Sun altitude
Exits shadow 21:44:41 16° 197° (SSW) 926 ? -17.0°
Drops below altitude 10° 21:45:35 10° 182° (S) 1,209 ? -16.8°
Sets 21:47:45 0° 166° (SSE) 2,034 ? -16.3°
